Resultados

800 Electronico
Fecha Serie Viento Presión Humedad Temperatura
05-06-2016 Final_A
Puesto Andanivel Nombre Dia Mes Año Pais Marca
-
01 5408 Martino Gerardo 10 12 1992 FLRES - 1.55.81 -
02 3402 Moreira Jairo 07 03 1995 ENP - 1.55.89 -
03 2228 Larrosa Daniel 16 2 1991 AND - 1.59.55 -
04 5441 Gonzalez Waldemar 30 11 1998 FLRES - 2.00.84 -
05 1381 Acuña Juan Manuel 2 11 1996 CAP - 2.04.15 -
06 3914 Gularte Rodrigo 29 3 2000 APRAD - 2.04.76 -
07 1143 Gargallo Matias 22 12 1998 CAPOA - 2.04.78 -
08 7002 Bentancour Adrian 29 8 1994 PAY - 2.04.97 -
09 4053 Castillo Alejandro 20 6 1999 VO2 - 2.05.14 -
10 3005 Trias Pablo 28 8 1980 NAC - 2.05.37 -
11 1111 Sosa Cristofer 3 8 1994 CAPOA - 2.05.44 -
12 323 Mora Pablo 19 3 1979 DSP - 2.07.00 -
13 423 Rodriguez Joaquin 4 11 1993 ATE - 2.07.66 -
14 6066 Bonner Juan 15 11 1982 FAM - 2.07.73 -
15 430 Flores Guillermo 27 8 1985 ATE - 2.07.80 -
16 229 Fernandez Ezequiel 13 11 2001 FRN - 2.08.97 -
17 4050 Perdomo Alexis 05 01 1992 VO2 - 2.09.37 -
18 3707 Andrade Nahuel 3 10 1999 SACUD - 2.09.51 -
19 4818 Suhr Julio 5 3 1995 NAC - 2.09.67 -
20 4346 Caceres Nicolas 2 1 1987 ENP - 2.09.91 -
21 1063 Saragüella Facundo 23 5 1998 CAPOA - 2.12.83 -
22 3605 Machado Reinaldo 2 8 1998 LGA - 2.13.67 -
23 1055 Soria Matias 11 2 1997 CAPOA - 2.14.20 -
24 1011 Castaño Gonzalo 12 4 1994 CAPOA - 2.14.48 -
25 3785 Almanso Ismael 17 4 1999 SACU - 2.16.65 -
26 7044 Sawczuk Ignacio 25 12 2000 PAY - 2.17.79 -
27 3705 Mateos Cristian 23 11 2001 SACUD - 2.18.11 -
28 4523 Rolon Paulo 23 3 1998 FEDAC - 2.18.16 -
29 301 Gronrroz Ciro 5 10 2000 DSP - 2.21.98 -
30 353 De Los Santos Joaquin 24 9 1999 DSP - 2.27.51 -
31 2498 Nievas Julio 14 6 1998 AGUIL - 2.28.90 -
32 1196 Aggierni Luca 31 7 1997 CAPOA - 2.32.72 -
33 2496 Santos Facundo 23 9 2002 AGUIL - 2.35.64 -
99 7034 Alvarez Gustavo 24 7 1999 PAY - DNS